Hourly Data Report for October 25, 2016

All times are specified in Local Standard Time (LST). Add 1 hour to adjust for Daylight Saving Time where and when it is observed.

RANKIN INLET A
NUNAVUT

62°48'38.000" N
92°06'53.000" W
32.30 m
2303405
71083
YRT

Download Data

Hourly Data (October 2016)
Hourly Data Report for October 25, 2016
Temp Definition
°C
Dew Point Temp Definition
°C
Rel Hum Definition
%
Wind Dir Definition
10's deg

Wind Spd Definition
km/h
Visibility Definition
km
Stn Press Definition
kPa
Hmdx Definition


Wind Chill Definition


Weather Definition


TIME
00:00 Legend Double Dagger 0.2 -5.0 68 24 13 24.1 103.00     Cloudy
01:00 Legend Double Dagger 0.0 -4.5 72 25 12 24.1 102.98   -4 LegendNANA
02:00 Legend Double Dagger -0.1 -4.4 73 25 16 24.1 102.96   -5 LegendNANA
03:00 Legend Double Dagger -0.4 -4.0 77 26 14 24.1 102.95   -5 Cloudy
04:00 Legend Double Dagger -0.3 -3.5 79 25 17 24.1 102.94   -5 LegendNANA
05:00 Legend Double Dagger -0.6 -3.1 83 25 17 24.1 102.93   -6 LegendNANA
06:00 Legend Double Dagger -0.5 -3.2 82 25 18 24.1 102.91   -6 Snow
07:00 Legend Double Dagger -0.4 -3.1 82 24 18 24.1 102.88   -5 LegendNANA
08:00 Legend Double Dagger -0.7 -2.8 86 26 13 24.1 102.84   -5 LegendNANA
09:00 Legend Double Dagger -0.7 -2.3 89 26 14 24.1 102.81   -5 Cloudy
10:00 Legend Double Dagger -0.7 -2.1 90 26 13 24.1 102.79   -5 Snow
11:00 Legend Double Dagger -0.5 -1.9 90 25 14 24.1 102.77   -5 Snow
12:00 Legend Double Dagger -0.1 -2.0 87 23 13 24.1 102.71   -4 Cloudy
13:00 Legend Double Dagger 0.0 -2.1 86 25 16 16.1 102.68   -5 Snow
14:00 Legend Double Dagger -0.2 -1.8 89 25 17 16.1 102.66   -5 Snow
15:00 Legend Double Dagger -0.4 -1.8 90 27 13 16.1 102.63   -5 Snow
16:00 Legend Double Dagger -0.5 -1.9 90 25 14 16.1 102.58   -5 Snow
17:00 Legend Double Dagger -0.6 -1.6 93 25 14 9.7 102.55   -5 Snow
18:00 Legend Double Dagger -0.6 -1.7 92 25 17 16.1 102.52   -6 Snow
19:00 Legend Double Dagger -0.9 -1.8 94 26 16 16.1 102.45   -6 Snow
20:00 Legend Double Dagger -1.0 -1.8 94 27 14 9.7 102.44   -5 Snow
21:00 Legend Double Dagger -1.3 -2.3 93 28 17 9.7 102.40   -6 Snow
22:00 Legend Double Dagger -1.6 -2.6 93 28 17 16.1 102.35   -7 Snow
23:00 Legend Double Dagger -1.7 -2.7 93 29 16 16.1 102.33   -7 Snow

Notes on Data Quality.

Legend

  • E = Estimated
  • M = Missing
  • NA = Not Available
  • ‡ = Partner data that is not subject to review by the National Climate Archives
Date modified: